Regional Weather Roundup
Issued by NWS

Home | Current Version | Previous Version | Graphics & Text | Print | Product List | Glossary Off
Versions: 1 2 3 4 5 6 7 8 9 10 11 12 13 14 15 16 17 18 19 20 21 22 23 24 25 26 27 28 29 30 31 32 33 34 35 36 37 38 39 40 41 42 43 44 45 46 47 48 49 50

000
ASUS43 KTOP 291459
RWRKS

WEATHER ROUNDUP FOR KANSAS
NATIONAL WEATHER SERVICE GOODLAND KS
1000 AM CDT THU SEP 29 2016

NOTE:  "FAIR" INDICATES FEW OR NO CLOUDS BELOW 12,000 FEET WITH NO
SIGNIFICANT WEATHER AND/OR OBSTRUCTIONS TO VISIBILITY.

KSZ001>006-013>018-027>032-041>047-291600-
NORTHWEST KANSAS

CITY           SKY/WX    TMP DP  RH WIND       PRES   REMARKS
GOODLAND       SUNNY     56  43  61 S13       30.42R
HAYS           SUNNY     57  41  54 NE3       30.45F
HILL CITY      SUNNY     53  46  77 E3        30.47R
RUSSELL        SUNNY     56  47  71 N6        30.44R
$$

KSZ061>065-074>080-084>089-291600-
SOUTHWEST KANSAS

CITY           SKY/WX    TMP DP  RH WIND       PRES   REMARKS
DODGE CITY     SUNNY     57  45  64 E5        30.45R
ELKHART          N/A     58  42  55 SE10        N/A
GARDEN CITY    SUNNY     57  42  57 SE8       30.44R
GREAT BEND     SUNNY     55  43  62 N5        30.45R
LIBERAL        SUNNY     57  43  58 SE6       30.45R
$$

KSZ066>073-081>083-090>101-291600-
SOUTHEAST KANSAS

CITY           SKY/WX    TMP DP  RH WIND       PRES   REMARKS
CHANUTE        SUNNY     59  51  75 N9        30.38R
COFFEYVILLE    SUNNY     61  51  70 N10       30.37R
HUTCHINSON     SUNNY     58  50  75 NW6       30.44R
MEDICINE LODGE   N/A     59  50  72 N7        30.43R
NEWTON         SUNNY     57  51  80 N8        30.43R
PARSONS        SUNNY     60  51  72 N10       30.38R
WICHITA INTL   MOSUNNY   59  49  69 N9        30.42R
WICHITA JABRA  SUNNY     58  51  78 N7        30.42R
WINFIELD       SUNNY     59  51  75 N6        30.42R
$$

KSZ007>012-019>026-033>040-048>060-102>105-291600-
NORTHEAST KANSAS

CITY           SKY/WX    TMP DP  RH WIND       PRES   REMARKS
CONCORDIA      SUNNY     55  49  80 VRB5      30.45R
EMPORIA        SUNNY     58  52  80 N5        30.41R
LAWRENCE       SUNNY     60  53  77 NW7       30.40R
MANHATTAN      SUNNY     58  51  78 NE6       30.43R
OLATHE IND     SUNNY     57  52  83 N10       30.39R
OLATHE EXE     SUNNY     57  49  74 N10       30.37R
SALINA         SUNNY     58  49  72 N6        30.45R
TOPEKA BILLARD SUNNY     59  52  77 N8        30.41R
TOPEKA FORBES  SUNNY     59  51  75 N9        30.41R
$$



USA.gov is the U.S. government's official web portal to all federal, state and local government web resources and services.